This is the latest recevied weather packets stored in our database for station/object SV9TNF-1. If no packets are shown the sender has not sent any weather packets the latest 10 day(s).
| Time | Temp. | Humidity | Pressure | Rain* | Wind** | Luminosity | Snow |
|---|---|---|---|---|---|---|---|
| 1778086835 | 20° C | 58% | 1004.7 hPa | 0 mm | 0.45 m/s, 120° | - | - |
| 1778086535 | 20° C | 56% | 1004.1 hPa | 0 mm | 0 m/s | - | - |
| 1778086235 | 20° C | 58% | 1004.1 hPa | 0 mm | 0.89 m/s, 125° | - | - |
| 1778085934 | 20° C | 60% | 1004.1 hPa | 0 mm | 0 m/s | - | - |
| 1778085634 | 20° C | 59% | 1004.1 hPa | 0 mm | 2.24 m/s, 124° | - | - |
| 1778085334 | 20° C | 59% | 1004.7 hPa | 0 mm | 2.68 m/s, 126° | - | - |
| 1778085035 | 20° C | 64% | 1004.7 hPa | 0 mm | 0.89 m/s, 125° | - | - |
| 1778084734 | 20° C | 65% | 1004.7 hPa | 0 mm | 0 m/s | - | - |
| 1778084435 | 20° C | 68% | 1004.7 hPa | 0 mm | 1.79 m/s, 117° | - | - |
| 1778084134 | 20° C | 69% | 1004.7 hPa | 0 mm | 1.79 m/s, 112° | - | - |
| 1778083834 | 20° C | 69% | 1004.7 hPa | 0 mm | 2.68 m/s, 120° | - | - |
| 1778083534 | 20.56° C | 69% | 1004.7 hPa | 0 mm | 4.02 m/s, 147° | - | - |
| 1778083234 | 20.56° C | 67% | 1004.7 hPa | 0 mm | 3.13 m/s, 111° | - | - |
| 1778082933 | 20.56° C | 65% | 1004.7 hPa | 0 mm | 5.81 m/s, 113° | - | - |
| 1778082634 | 20.56° C | 63% | 1004.7 hPa | 0 mm | 3.58 m/s, 109° | - | - |
| 1778082334 | 21.67° C | 62% | 1005.1 hPa | 0 mm | 4.92 m/s, 69° | - | - |
| 1778082033 | 21.67° C | 62% | 1005.1 hPa | 0 mm | 4.02 m/s, 130° | - | - |
| 1778081733 | 22.22° C | 58% | 1005.1 hPa | 0 mm | 4.02 m/s, 123° | - | - |
| 1778081433 | 22.78° C | 52% | 1005.1 hPa | 0 mm | 0.45 m/s, 104° | - | - |
| 1778081134 | 22.22° C | 52% | 1005.1 hPa | 0 mm | 5.36 m/s, 125° | - | - |
| 1778080833 | 22.78° C | 54% | 1005.1 hPa | 0 mm | 1.34 m/s, 118° | - | - |
| 1778080533 | 22.78° C | 54% | 1005.1 hPa | 0 mm | 1.79 m/s, 125° | - | - |
| 1778080233 | 22.78° C | 58% | 1005.1 hPa | 0 mm | 0.89 m/s, 136° | - | - |
| 1778079932 | 22.22° C | 56% | 1005.1 hPa | 0 mm | 2.68 m/s, 118° | - | - |
| 1778079632 | 22.22° C | 60% | 1005.1 hPa | 0 mm | 5.36 m/s, 107° | - | - |
* Rain latest hour (hover to see other rain measurements)
** Current wind speed in m/s (hover to see current wind gust speed)